Weather History for Marianna, FL

Change the Weather History Date:

Thursday, December 20, 2012

  Actual Average Record
Temperature  
Mean Temperature 61 °F 51 °F  
Max Temperature 76 °F 63 °F 79 °F (1998)
Min Temperature 46 °F 40 °F 21 °F (2000)
Degree Days  
Heating Degree Days 4    
Month to date heating degree days 104  
Since 1 July heating degree days 393  
Cooling Degree Days 0    
Month to date cooling degree days 8  
Year to date cooling degree days 2751  
Growing Degree Days 12 (Base 50)    
Moisture  
Dew Point 55 °F    
Average Humidity 75    
Maximum Humidity 96    
Minimum Humidity 54    
Precipitation  
Precipitation 0.68 in 0.12 in 1.03 in (2007)
Month to date precipitation 2.06 2.66  
Year to date precipitation 57.93 52.33  
Sea Level Pressure  
Sea Level Pressure 29.90 in    
Wind  
Wind Speed 11 mph (SW)    
Max Wind Speed 26 mph    
Max Gust Speed 33 mph    
Visibility 8 miles    
Events Rain    
T = Trace of Precipitation, MM = Missing Value Source: NWS Daily Summary

Daily Weather History Graph

Daily Weather History Graph

Search for Another Location

Airport:

Trip Planner

Search our weather history database for the weather conditions in past years. The results will help you decide how hot, cold, wet, or windy it might be!

Date:

Astronomy

Dec. 20, 2012 Rise Set
Actual Time 6:34 AM CST 4:43 PM CST
Civil Twilight 6:07 AM CST 5:09 PM CST
Nautical Twilight 5:37 AM CST 5:39 PM CST
Astronomical Twilight 5:07 AM CST 6:09 PM CST
Moon 11:41 AM CST (12/20) No Moon Set
Length of Visible Light 11h 02m
Length of Day
10h 08m
First Quarter, 55% of the Moon is Illuminated
Dec 20
First Quarter
Dec 28
Full
Jan 4
Last Quarter
Jan 11
New
Jan 18
First Quarter

Hourly Weather History & Observations

Time (CST) Temp. Windchill Dew Point Humidity Pressure Visibility Wind Dir Wind Speed Gust Speed Precip Events Conditions
12:53 AM 51.1 °F - 48.9 °F 92% 30.02 in 10.0 mi East 3.5 mph - N/A   Clear
1:53 AM 52.0 °F - 50.0 °F 93% 30.01 in 10.0 mi Calm Calm - N/A   Clear
2:53 AM 50.0 °F - 48.9 °F 96% 30.02 in 10.0 mi Calm Calm - N/A   Partly Cloudy
3:53 AM 52.0 °F - 50.0 °F 93% 30.00 in 10.0 mi Calm Calm - N/A   Mostly Cloudy
4:53 AM 53.1 °F - 51.1 °F 93% 29.98 in 10.0 mi SSE 4.6 mph - N/A   Clear
5:10 AM 55.4 °F - 51.8 °F 88% 29.96 in 10.0 mi SE 5.8 mph - N/A   Mostly Cloudy
5:53 AM 55.0 °F - 52.0 °F 89% 29.97 in 10.0 mi SSE 3.5 mph - N/A   Scattered Clouds
6:04 AM 55.4 °F - 51.8 °F 88% 29.97 in 10.0 mi SE 4.6 mph - N/A   Mostly Cloudy
6:53 AM 55.0 °F - 53.1 °F 93% 29.97 in 10.0 mi SSE 3.5 mph - N/A   Overcast
7:53 AM 59.0 °F - 55.0 °F 87% 29.95 in 10.0 mi South 8.1 mph - N/A   Clear
8:11 AM 60.8 °F - 55.4 °F 82% 29.97 in 10.0 mi SSW 9.2 mph - N/A   Mostly Cloudy
8:53 AM 62.1 °F - 57.9 °F 86% 29.94 in 10.0 mi South 10.4 mph - N/A   Overcast
9:04 AM 64.4 °F - 57.2 °F 77% 29.94 in 10.0 mi South 13.8 mph 19.6 mph N/A   Mostly Cloudy
9:53 AM 69.1 °F - 62.1 °F 78% 29.91 in 10.0 mi South 18.4 mph 26.5 mph N/A   Clear
10:53 AM 73.0 °F - 64.0 °F 73% 29.85 in 10.0 mi South 21.9 mph 32.2 mph N/A   Scattered Clouds
11:30 AM 75.2 °F - 64.4 °F 69% 29.82 in 10.0 mi South 18.4 mph 26.5 mph N/A   Mostly Cloudy
11:53 AM 73.9 °F - 66.0 °F 76% 29.80 in 10.0 mi South 18.4 mph 28.8 mph N/A   Overcast
12:40 PM 71.6 °F - 68.0 °F 88% 29.79 in 2.5 mi SSW 17.3 mph 28.8 mph 0.11 in Rain Heavy Rain
12:53 PM 71.1 °F - 69.1 °F 93% 29.79 in 4.0 mi SW 12.7 mph 28.8 mph 0.16 in Rain Rain
1:10 PM 71.6 °F - 69.8 °F 94% 29.80 in 1.8 mi SW 16.1 mph 24.2 mph 0.11 in Rain Heavy Rain
1:13 PM 71.6 °F - 69.8 °F 94% 29.79 in 1.2 mi West 19.6 mph 25.3 mph 0.14 in Rain Heavy Rain
1:19 PM 69.8 °F - 66.2 °F 88% 29.78 in 0.8 mi WSW 15.0 mph 26.5 mph 0.28 in Rain Heavy Rain
1:37 PM 69.8 °F - 68.0 °F 94% 29.78 in 2.0 mi WSW 12.7 mph 20.7 mph 0.45 in Rain Light Rain
1:41 PM 69.8 °F - 68.0 °F 94% 29.78 in 8.0 mi SW 11.5 mph 20.7 mph 0.45 in Rain Light Rain
1:53 PM 70.0 °F - 68.0 °F 93% 29.78 in 10.0 mi SSW 13.8 mph - 0.45 in   Overcast
2:22 PM 71.6 °F - 68.0 °F 88% 29.78 in 10.0 mi SSW 18.4 mph 27.6 mph 0.01 in   Overcast
2:53 PM 70.0 °F - 66.9 °F 90% 29.78 in 10.0 mi SW 15.0 mph 21.9 mph 0.01 in Rain Light Rain
3:15 PM 64.4 °F - 60.8 °F 88% 29.80 in 3.0 mi WNW 20.7 mph 28.8 mph 0.04 in Rain Heavy Rain
3:17 PM 62.6 °F - 55.4 °F 77% 29.80 in 2.5 mi WNW 23.0 mph 28.8 mph 0.05 in Rain Heavy Rain
3:28 PM 62.6 °F - 51.8 °F 68% 29.81 in 7.0 mi WNW 15.0 mph - 0.06 in Rain Light Rain
3:39 PM 62.6 °F - 53.6 °F 72% 29.81 in 10.0 mi West 11.5 mph - 0.06 in   Overcast
3:53 PM 62.1 °F - 53.1 °F 72% 29.81 in 10.0 mi West 9.2 mph - 0.06 in   Overcast
4:10 PM 62.6 °F - 50.0 °F 63% 29.83 in 10.0 mi WNW 16.1 mph - N/A   Scattered Clouds
4:53 PM 59.0 °F - 48.0 °F 67% 29.86 in 10.0 mi West 6.9 mph - N/A   Clear
5:53 PM 57.9 °F - 46.0 °F 65% 29.90 in 10.0 mi West 10.4 mph - N/A   Clear
6:53 PM 57.0 °F - 45.0 °F 64% 29.94 in 10.0 mi WNW 13.8 mph 19.6 mph N/A   Clear
7:53 PM 54.0 °F - 37.0 °F 53% 29.99 in 10.0 mi NW 13.8 mph 21.9 mph N/A   Clear
8:53 PM 51.1 °F - 36.0 °F 56% 30.04 in 10.0 mi WNW 13.8 mph 21.9 mph N/A   Clear
9:53 PM 48.9 °F - 32.0 °F 52% 30.07 in 10.0 mi WNW 20.7 mph 32.2 mph N/A   Clear
10:53 PM 48.0 °F - 32.0 °F 54% 30.09 in 10.0 mi WNW 19.6 mph 28.8 mph N/A   Clear
11:53 PM 46.0 °F 41.0 °F 30.9 °F 56% 30.10 in 10.0 mi WNW 10.4 mph - N/A   Clear